Theta_e
324 315 313 307 299 296 292 296 301 303 305 308 312 317 319 320 316 308 331 339 347 353 359 360 362 361 361 360 360 360 360 360 360 360 360 360 360 359 358 357 355 351 348 345 344 343 342 340 339
313 315 309 300 296 293 295 300 301 303 308 309 307 313 316 315 328 329 332 344 350 355 358 358 362 361 361 360 360 359 359 360 360 359 359 359 359 357 355 355 354 350 346 345 343 342 341 340 339
308 314 304 295 292 293 298 305 304 307 309 308 308 314 316 315 328 331 336 346 352 354 356 357 362 361 360 360 359 359 359 359 359 359 359 358 358 356 355 355 353 349 346 344 343 342 342 341 340
307 307 302 294 291 297 302 307 310 309 311 310 308 306 313 318 322 334 343 350 351 354 355 360 362 361 360 360 359 358 358 358 358 358 358 358 356 356 356 354 353 351 347 344 343 342 342 341 340
306 302 294 291 293 298 302 304 305 309 308 307 307 306 308 314 338 340 345 348 349 354 355 358 361 361 361 360 359 358 358 357 357 358 357 357 356 355 355 354 352 349 348 345 343 343 344 343 342
300 300 292 290 295 301 304 303 304 312 309 308 307 307 307 313 334 337 343 344 350 352 356 358 361 361 360 360 359 358 357 357 357 357 357 357 356 355 355 354 352 351 350 349 345 346 346 344 343
296 296 293 291 296 299 304 306 303 310 311 309 310 305 307 311 319 337 338 342 348 353 354 355 356 359 360 360 359 358 356 356 356 356 356 356 356 356 355 355 354 353 352 350 349 347 346 344 343
298 296 293 294 296 297 304 305 304 304 307 318 314 307 303 310 316 334 335 337 342 350 353 353 353 354 356 356 359 358 357 357 356 356 356 356 356 355 355 353 354 353 352 350 350 349 347 345 345
299 291 289 294 296 299 303 301 304 307 306 309 312 312 313 320 330 331 331 336 340 344 350 351 351 351 352 354 356 358 358 357 357 356 356 354 351 351 351 352 351 353 353 352 351 350 348 347 347
293 288 291 298 299 298 300 299 301 303 302 304 307 312 314 321 328 329 329 331 336 340 346 349 348 350 349 353 354 353 353 353 353 352 352 349 347 347 349 350 352 352 354 353 352 351 350 349 343
292 290 294 297 299 299 298 299 301 300 298 302 302 309 311 316 326 329 330 332 334 339 345 347 347 349 350 351 353 352 353 353 352 352 352 350 346 346 348 345 347 348 350 348 349 348 347 345 342
290 295 297 297 299 298 298 300 298 300 301 304 306 308 309 313 321 329 330 332 332 338 341 346 347 347 347 349 351 350 350 352 350 349 349 346 344 341 341 342 341 341 343 343 344 343 343 343 343
290 293 296 298 297 297 299 298 298 298 303 304 304 307 309 313 316 323 333 332 334 336 339 343 346 345 345 347 348 348 348 349 349 349 347 346 343 341 339 339 339 338 339 341 340 341 340 340 340
292 292 293 294 294 294 295 297 297 300 304 303 302 302 307 308 314 317 321 324 328 336 338 342 344 344 345 346 346 345 347 347 344 345 347 346 343 341 338 336 336 336 338 339 340 339 339 338 338
292 288 291 293 293 294 294 293 293 300 301 302 303 304 306 307 309 317 323 323 326 332 338 340 342 344 343 343 344 342 342 341 340 341 342 344 343 340 338 335 333 334 336 338 339 339 339 338 337
288 287 284 290 294 296 294 289 296 299 298 299 301 303 308 309 309 315 318 322 323 327 332 338 341 341 341 342 343 341 341 341 340 340 341 342 342 342 339 336 334 336 337 338 339 339 339 338 337
285 282 283 288 292 292 292 288 295 298 297 296 297 299 301 304 310 311 314 317 322 327 330 334 339 339 339 340 343 341 340 340 342 341 342 343 344 343 342 340 339 339 339 339 338 338 337 334 332
281 282 284 285 290 290 289 289 294 296 295 295 295 297 299 301 304 311 311 315 318 323 328 333 337 339 338 340 343 343 343 342 342 342 341 342 344 344 343 342 341 342 342 341 338 337 336 334 334
287 285 285 288 292 289 289 289 292 294 294 294 295 295 296 297 304 308 310 311 314 316 320 325 330 337 339 339 340 339 339 340 341 341 341 340 343 345 343 343 340 340 339 340 339 338 336 335 334
288 285 285 289 292 289 289 288 291 293 293 294 295 295 296 297 298 301 307 311 314 316 317 321 325 329 338 338 330 331 333 336 336 337 339 340 340 341 338 338 336 341 340 340 339 337 336 334 334
287 285 286 287 290 290 287 285 289 292 293 295 296 296 296 297 298 301 304 309 311 314 316 319 323 324 325 325 324 323 324 324 328 329 334 337 338 339 335 330 333 339 339 339 339 338 335 334 334
284 291 290 289 286 281 287 281 285 289 290 293 295 294 295 296 297 300 303 307 311 314 316 316 317 320 322 322 321 321 319 318 321 323 327 331 334 333 335 334 335 336 339 337 338 339 338 336 334
288 291 289 289 284 281 283 279 283 287 288 290 292 294 295 297 297 298 300 305 309 313 314 316 316 316 317 319 320 319 317 317 319 321 323 324 328 331 333 336 338 337 337 337 338 338 336 337 336
293 289 285 283 281 276 282 281 281 285 289 290 293 295 296 297 299 299 300 302 307 310 312 314 315 314 315 316 315 315 315 315 316 317 318 320 322 324 327 329 329 328 329 333 336 337 337 337 336
288 283 277 276 276 279 285 280 285 288 292 292 293 295 296 298 298 300 301 301 305 308 311 314 314 313 315 316 315 315 314 314 315 315 316 318 320 320 323 326 326 327 332 337 339 339 338 337 334
285 284 279 275 274 280 285 278 284 291 294 296 296 296 297 297 298 300 303 302 301 308 311 315 314 313 315 315 315 316 315 314 314 315 316 317 317 319 323 326 328 330 330 329 331 334 337 338 338
286 282 286 281 281 278 281 285 291 294 294 295 296 296 296 297 298 301 302 304 304 307 310 314 314 313 314 314 314 315 314 312 314 315 316 317 317 320 322 323 326 325 326 328 331 332 331 334 337
292 294 285 284 278 274 279 281 283 289 291 295 295 295 296 297 299 299 300 303 303 304 307 311 312 314 314 315 316 313 313 313 314 314 315 316 317 319 321 324 323 321 323 327 329 326 328 330 331
289 288 289 288 286 280 279 280 288 289 291 293 294 296 297 297 298 299 300 303 303 304 307 307 308 309 311 311 312 312 312 314 314 314 315 316 317 317 319 320 319 319 321 326 323 324 327 326 326
294 290 291 284 282 284 279 282 293 291 293 295 295 297 298 300 300 300 300 303 305 306 304 305 306 306 308 310 310 310 311 312 313 314 316 316 316 317 319 319 317 319 322 322 321 323 324 321 321
Wind_Speed
8 7 1 5 4 6 1 3 3 5 6 3 3 2 7 3 2 4 1 3 10 17 14 15 18 18 19 18 18 16 15 16 17 18 17 17 16 15 14 12 11 12 12 12 12 11 11 10 9
6 5 4 3 5 4 4 2 2 2 5 5 1 1 5 2 2 4 7 4 12 13 12 13 18 18 18 18 19 17 17 16 16 17 17 15 15 15 14 12 11 11 11 10 10 9 9 10 9
4 4 4 5 3 5 4 4 3 4 2 4 4 3 2 3 2 7 5 12 11 9 9 9 15 15 17 18 18 19 18 18 17 16 16 16 14 14 13 12 11 11 10 9 9 8 7 8 8
3 5 5 5 5 4 2 3 1 4 7 8 2 5 2 1 2 2 11 15 16 10 7 14 16 15 16 17 19 19 18 18 18 17 16 15 14 13 12 11 9 8 9 9 8 7 6 5 7
4 3 3 1 5 4 3 6 2 1 1 4 2 1 3 3 6 8 10 13 13 12 8 10 15 15 15 16 17 19 20 17 16 16 16 15 14 12 11 11 10 9 8 8 8 7 6 4 3
4 3 4 4 5 3 4 3 4 2 1 1 5 1 2 2 5 6 8 10 10 12 10 10 14 15 14 14 14 17 18 19 17 15 14 14 13 13 12 11 11 9 9 7 7 5 4 3 2
6 4 4 3 3 3 3 3 3 3 4 4 3 3 3 6 5 9 9 8 9 10 12 12 8 12 14 13 13 13 16 18 19 19 15 14 13 12 11 10 10 9 7 7 6 6 5 4 4
5 5 4 4 4 4 2 6 1 5 2 5 6 4 3 5 7 8 8 9 7 6 10 12 9 10 8 6 12 12 10 10 13 16 17 16 14 13 12 10 9 9 8 7 6 5 5 5 5
4 5 4 6 6 4 3 6 4 4 1 6 5 2 6 8 12 8 8 6 7 6 11 11 10 7 8 7 9 11 14 12 8 7 9 10 5 7 9 10 10 10 8 7 7 6 5 6 7
5 4 8 5 4 3 1 3 4 6 8 2 3 4 3 4 10 13 11 10 11 12 13 11 9 11 7 9 7 6 6 5 5 5 5 3 4 4 5 7 11 10 8 7 7 6 6 7 2
4 6 5 4 5 3 3 4 4 2 7 6 4 4 4 2 5 10 11 15 19 15 11 13 11 12 14 9 6 5 4 4 3 5 6 6 3 3 3 2 2 2 5 2 3 3 3 5 4
3 5 5 3 4 4 5 4 2 5 11 7 8 4 5 7 8 10 11 13 13 17 16 14 13 12 13 6 8 8 8 6 6 8 10 6 3 3 3 2 4 3 2 3 3 2 3 5 6
4 4 4 6 7 6 6 9 8 6 12 12 10 6 12 11 10 9 6 4 6 12 14 15 15 13 12 11 8 8 9 9 9 9 9 5 4 6 4 4 4 5 3 3 3 3 3 4 6
4 2 4 5 6 5 5 9 5 4 9 10 8 11 9 12 17 5 5 8 9 10 14 14 15 14 13 12 12 9 6 4 0 1 3 5 4 4 4 4 4 4 4 4 4 4 4 5 4
0 2 4 5 3 6 4 8 5 7 6 9 10 8 7 9 4 12 15 11 11 10 10 16 17 15 15 16 11 9 4 5 4 2 2 4 3 3 3 5 4 3 3 5 3 4 3 4 4
3 5 2 5 2 6 7 9 6 4 3 8 10 8 8 6 11 11 8 9 9 6 13 12 12 15 15 13 10 7 11 10 6 4 2 5 5 4 3 5 6 3 3 3 3 3 3 4 4
6 3 2 7 3 4 5 5 5 1 1 6 9 9 9 8 8 9 9 9 10 13 11 12 13 14 15 10 8 8 8 5 4 9 2 6 5 6 5 5 5 4 3 3 3 3 2 2 3
3 1 3 5 4 3 7 6 9 8 4 7 7 8 9 10 13 12 13 11 8 9 8 10 11 12 11 7 7 6 6 6 7 9 11 14 6 6 5 4 4 4 5 2 2 3 2 3 3
2 4 5 7 11 3 8 6 9 9 8 10 8 6 7 10 12 7 8 8 7 6 5 7 10 11 10 7 9 8 10 9 9 7 6 3 10 11 7 3 3 5 8 4 4 2 4 1 2
5 4 8 9 13 7 8 8 8 7 7 6 7 10 7 7 9 8 7 6 7 11 9 7 8 8 11 8 3 4 4 4 3 3 5 9 9 7 8 7 6 16 8 6 3 4 1 2 2
4 5 5 9 4 3 2 4 6 6 4 7 7 7 7 8 10 10 6 8 7 9 14 13 14 12 6 6 6 4 3 4 1 2 2 4 7 7 8 11 18 12 12 4 5 5 5 2 1
4 8 7 5 1 5 4 11 4 5 7 6 9 9 10 10 7 8 11 7 10 14 6 8 7 7 7 8 7 8 6 5 4 4 2 5 4 5 10 12 14 14 6 9 2 4 4 4 2
10 5 6 5 5 2 3 1 9 3 5 10 9 10 10 10 8 9 10 11 10 7 9 7 6 6 6 7 7 6 5 4 3 3 5 3 2 5 6 8 7 8 6 8 7 4 7 4 2
3 1 5 4 3 3 8 6 5 6 9 6 5 9 10 9 9 9 9 9 12 5 7 8 9 8 6 7 7 8 8 7 5 4 4 3 3 3 5 5 5 5 5 6 5 7 4 3 4
4 5 4 5 3 11 8 6 11 7 9 8 10 12 10 9 8 9 9 8 10 10 11 11 12 11 9 8 8 8 8 7 7 5 4 4 4 3 5 6 5 4 3 2 2 4 5 6 3
7 9 7 7 5 8 3 7 7 8 6 6 5 9 10 8 8 9 9 9 9 11 12 15 15 13 13 10 8 7 7 5 5 5 4 4 3 3 3 3 2 2 3 3 3 1 2 3 2
3 4 4 2 2 3 5 7 6 5 4 5 7 8 7 7 9 9 7 6 5 6 8 11 10 7 9 10 9 8 8 8 7 8 5 4 4 3 4 5 5 4 4 2 2 2 3 3 2
4 6 2 1 4 7 4 4 6 6 4 5 8 8 7 8 8 9 8 2 3 3 1 1 3 8 9 10 10 7 7 8 7 5 6 6 5 5 5 5 4 4 4 4 5 2 3 3 3
1 2 4 3 2 5 8 6 6 3 3 6 8 7 7 8 8 6 9 3 4 3 5 2 0 2 6 1 5 3 8 8 6 6 6 7 5 6 6 6 6 5 5 5 4 4 4 4 3
1 3 4 5 4 5 3 11 3 4 4 6 9 9 7 7 7 7 6 9 5 5 5 3 5 5 6 4 4 6 6 3 4 8 9 8 9 6 9 7 6 6 6 5 5 5 4 4 4
Wind_Direction
319 314 37 36 61 66 245 272 243 347 353 250 309 145 128 140 157 214 311 158 137 146 153 152 150 146 140 138 136 132 127 124 124 126 132 137 141 145 145 141 142 144 145 149 145 138 135 131 128
319 347 34 79 100 108 251 145 243 185 238 313 283 62 65 71 111 102 102 148 149 147 151 153 150 146 141 141 139 137 134 131 130 135 139 142 147 148 145 144 148 151 152 150 138 135 134 128 127
341 44 63 88 103 170 181 122 253 279 352 48 17 77 55 342 39 167 147 138 127 140 140 150 142 142 143 145 144 141 140 141 142 145 148 150 151 147 148 150 155 154 151 144 137 133 130 126 118
37 11 37 85 227 258 217 84 313 329 351 33 357 29 343 195 241 9 149 139 135 134 137 155 149 149 150 152 148 144 144 146 150 151 150 151 151 150 150 152 153 153 154 149 140 137 140 134 123
27 66 69 25 263 257 247 303 103 171 354 351 37 342 344 4 68 102 135 137 140 141 139 153 152 150 154 157 154 151 148 150 152 152 154 155 156 155 155 155 159 162 165 160 156 159 153 138 125
49 100 81 215 243 282 298 273 7 320 165 228 65 59 289 97 135 139 130 133 134 142 145 155 157 156 159 165 165 160 157 155 156 159 161 160 161 163 164 166 171 178 175 171 171 168 159 166 178
123 97 188 228 259 313 249 352 70 278 196 246 177 109 266 314 132 141 125 112 127 145 156 166 162 163 166 170 171 175 169 167 164 163 166 166 166 167 172 176 182 189 185 178 180 178 182 203 219
108 94 154 219 227 259 277 335 283 77 271 318 152 181 235 230 99 113 109 108 106 137 163 172 170 168 160 170 177 177 180 184 179 172 168 169 171 174 178 184 193 202 190 188 194 197 203 233 250
120 77 194 215 167 234 333 18 332 303 15 307 332 260 244 115 115 104 113 102 124 144 176 179 176 172 176 164 179 184 181 181 189 192 186 171 172 180 188 187 201 211 209 203 201 204 218 241 257
104 139 213 217 203 260 321 321 322 350 338 182 298 328 4 60 147 151 168 166 171 171 180 184 181 185 171 186 182 169 184 175 177 179 186 194 194 186 189 203 207 218 218 217 213 213 221 257 257
154 183 212 250 233 242 273 285 216 239 293 220 284 277 272 314 246 177 183 181 185 175 175 186 185 188 187 185 173 185 183 177 190 197 195 201 209 208 187 187 255 226 228 202 225 238 228 233 249
140 231 198 254 239 284 269 268 292 202 253 254 255 195 238 236 237 203 198 187 175 181 185 179 184 184 192 184 185 188 194 186 198 209 209 202 184 215 228 207 195 240 232 205 200 222 242 250 258
180 239 216 242 273 245 268 259 247 239 260 270 260 200 209 218 225 270 223 191 178 182 188 188 180 182 183 183 188 191 199 199 203 202 201 194 193 210 193 227 212 206 188 206 217 212 221 248 265
210 224 285 294 262 243 234 260 140 280 265 285 288 272 209 209 210 209 230 202 188 189 188 179 187 184 183 190 186 187 179 191 192 276 268 202 198 203 220 216 235 263 216 188 195 212 216 223 240
224 321 333 248 237 244 171 295 202 243 270 280 290 283 262 217 203 212 209 199 195 204 179 184 189 187 193 195 178 149 159 150 157 214 259 287 274 243 258 271 218 212 252 246 205 208 204 227 224
74 44 4 279 225 255 145 273 286 274 246 284 293 300 297 253 210 225 239 209 202 181 187 177 186 192 197 199 187 180 181 169 158 148 249 219 226 247 256 256 277 216 207 252 267 211 201 226 215
7 227 225 308 247 271 173 277 262 316 4 273 288 295 295 281 259 256 233 230 208 203 187 184 187 189 202 191 186 187 175 167 191 126 214 232 220 210 219 254 273 278 227 209 242 270 214 223 235
225 261 259 252 274 198 289 251 287 295 327 282 271 270 274 276 264 228 226 231 233 215 197 190 189 196 187 179 168 164 160 162 158 170 187 184 192 182 189 232 226 257 268 203 216 256 245 227 271
189 206 242 255 260 228 252 252 264 284 317 307 297 286 270 268 274 278 232 225 217 262 218 195 184 191 167 166 168 173 185 182 192 205 218 187 181 171 137 12 10 261 235 231 174 214 250 251 176
213 246 260 276 261 165 259 257 252 243 245 226 278 302 296 293 305 301 255 210 224 220 228 215 201 186 190 177 163 147 153 176 174 196 219 198 191 168 166 163 49 279 280 201 173 178 259 274 146
208 188 237 225 308 265 329 293 250 256 267 287 272 231 261 267 292 299 275 250 213 229 219 214 205 187 179 153 125 92 81 52 66 231 197 193 195 206 191 181 203 218 236 239 157 155 165 267 124
250 219 241 252 155 240 124 281 238 240 255 269 278 294 285 287 282 279 285 261 217 227 207 220 191 192 170 171 158 160 161 157 181 165 171 168 182 194 199 215 215 212 197 273 216 168 137 168 252
243 218 231 252 230 57 284 301 276 230 274 268 253 262 268 267 258 275 270 268 267 213 204 187 172 181 185 178 188 162 156 146 135 135 153 152 169 199 208 211 206 209 193 196 194 156 189 180 170
224 181 45 52 87 237 230 208 190 221 238 275 267 256 262 275 280 272 268 266 265 202 180 173 174 192 198 179 186 172 165 162 147 161 160 165 166 170 194 208 209 219 211 194 194 157 195 186 203
126 80 315 317 307 262 222 238 251 234 247 225 269 302 287 269 273 275 274 270 250 216 198 184 179 191 186 187 181 174 171 174 170 182 174 173 169 182 192 189 185 180 164 131 95 105 160 199 174
184 159 177 242 240 272 29 242 248 217 253 318 316 277 294 303 276 273 282 265 251 229 211 195 187 188 182 180 183 193 177 175 166 175 180 184 190 201 200 164 143 123 83 69 76 146 222 140 142
194 178 200 170 42 345 224 295 305 279 12 357 333 357 324 321 311 295 292 319 284 255 227 210 194 180 179 188 186 188 178 169 184 188 174 175 196 213 203 188 173 169 156 145 108 53 3 15 315
167 150 120 19 293 264 239 264 243 267 255 315 341 336 337 330 327 318 313 304 100 74 351 219 166 201 196 202 218 195 178 189 180 160 191 193 209 208 208 199 199 197 194 179 147 164 210 190 239
164 177 66 96 164 260 291 251 218 248 233 285 299 281 293 300 296 297 300 328 72 334 148 135 174 272 274 35 319 223 210 190 172 190 195 204 195 204 207 212 202 202 199 195 172 201 212 226 235
85 130 148 161 212 232 238 262 310 281 250 264 295 300 300 291 291 298 292 304 356 110 333 270 196 212 234 245 234 244 245 204 209 205 208 204 212 200 212 198 208 207 201 189 192 201 220 231 249